Regional Weather Roundup
Issued by NWS

Home | Current Version | Previous Version | Graphics & Text | Print | Product List | Glossary On
Versions: 1 2 3 4 5 6 7 8 9 10 11 12 13 14 15 16 17 18 19 20 21 22 23 24 25 26 27 28 29 30 31 32 33 34 35 36 37 38 39 40 41 42 43 44 45 46 47 48 49 50
000
ASUS43 KOAX 211502
RWRNE

WEATHER ROUNDUP FOR NEBRASKA
NATIONAL WEATHER SERVICE OMAHA NE
900 AM CST SUN JAN 21 2018

NOTES: SATELLITE DATA IS BEING USED TO AUGMENT CLOUD COVER ABOVE
       12000 FEET.
       "FAIR" INDICATES FEW OR NO CLOUDS BELOW 12,000 FEET WITH NO
       SIGNIFICANT WEATHER AND/OR OBSTRUCTIONS TO VISIBILITY.


NEZ001>004-019>022-054>056-211600-
NEBRASKA PANHANDLE

CITY           SKY/WX    TMP DP  RH WIND       PRES   REMARKS
SCOTTSBLUFF    LGT SNOW  29  26  89 N20       29.90S FOG     WCI  16
ALLIANCE       LGT SNOW  28  27  96 N16       29.89S VSB 1   WCI  16
CHADRON        FOG       29  27  92 N10       29.97S VSB 1/2 WCI  20
GORDON         LGT SNOW  30  28  91 N13       29.93S WCI  20
KIMBALL        LGT SNOW  26  26  97 NE16      29.84R WCI  14
SIDNEY         LGT SNOW  28  26  92 NE20      29.84R VSB 3/4 WCI  15
$$

NEZ057>060-069>072-079>082-211600-
SOUTHWEST NEBRASKA

CITY           SKY/WX    TMP DP  RH WIND       PRES   REMARKS
NORTH PLATTE   CLOUDY    33  28  81 N16G25    29.85R WCI  23
IMPERIAL       CLOUDY    32  28  85 N20G29    29.81S WCI  20
LEXINGTON      CLOUDY    34  30  86 N16       29.82R WCI  24
MCCOOK         MIX PCPN  32  32 100 N16       29.77F FOG     WCI  21
OGALLALA       CLOUDY    34  29  83 NE14G22   29.86R WCI  24
$$

NEZ005>010-023>029-035>040-094-211600-
NORTH CENTRAL NEBRASKA

CITY           SKY/WX    TMP DP  RH WIND       PRES   REMARKS
VALENTINE      LGT SNOW  34  31  88 N14       29.94R FOG     WCI  25
AINSWORTH      CLOUDY    33  32  99 N14       29.92R WCI  23
BROKEN BOW     CLOUDY    33  29  85 N16       29.83R WCI  23
O`NEILL        CLOUDY    32  31  94 N12       29.90S WCI  23
ORD            CLOUDY    33  28  81 N18       29.82F WCI  22
THEDFORD       MOCLDY    32  31  95 N10G20    29.89S WCI  24
$$

NEZ041-046>049-061>064-073>077-083>087-211600-
SOUTH CENTRAL NEBRASKA

CITY           SKY/WX    TMP DP  RH WIND       PRES   REMARKS
GRAND ISLAND   LGT SNOW  33  33 100 N17       29.79S FOG     WCI  22
AURORA         CLOUDY    34  33  97 N14       29.78S FOG     WCI  25
HASTINGS       LGT SNOW  33  32  96 N14       29.76S VSB 3/4 WCI  23
HEBRON         FOG       40  40  98 NE9       29.74R VSB 3/4 WCI  34
HOLDREGE       CLOUDY    32  32 100 N12       29.79R FOG     WCI  23
KEARNEY        MIX PCPN  32  31  96 N16       29.79R FOG     WCI  21
YORK           CLOUDY    36  36 100 N16       29.78S FOG     WCI  26
$$

NEZ011>018-030>034-042>045-211600-
NORTHEAST NEBRASKA

CITY           SKY/WX    TMP DP  RH WIND       PRES   REMARKS
NORFOLK        CLOUDY    44  30  57 NE9       29.85R
ALBION         CLOUDY    35  32  88 NE12      29.84R WCI  27
BLAIR          CLOUDY    39  37  91 NE12      29.79R FOG     WCI  32
COLUMBUS       CLOUDY    36  33  89 N14       29.82R WCI  27
FREMONT        CLOUDY    38  35  89 N8        29.82S WCI  32
TEKAMAH        CLOUDY    36  32  85 N14       29.84R WCI  27
WAYNE          CLOUDY    33  32  96 N7        29.88R WCI  27
$$

NEZ050>053-065>068-078-088>093-211600-
SOUTHEAST NEBRASKA

CITY           SKY/WX    TMP DP  RH WIND       PRES   REMARKS
LINCOLN        CLOUDY    40  37  89 N10       29.79R FOG     WCI  33
OMAHA EPPLEY   CLOUDY    40  38  93 NW8       29.80F FOG     WCI  34
BEATRICE       DRIZZLE   40  40 100 NE6       29.75R
FALLS CITY     FOG       43  43 100 E7        29.75R VSB 1/4
NEBRASKA CITY  DRZL/FOG  40  40 100 NE6       29.77R VSB<1/4
PLATTSMOUTH    MIX PCPN  39  39 100 NE9       29.78R WCI  33
$$

NEZ044-045-051>053-067-211600-
OMAHA AREA

CITY           SKY/WX    TMP DP  RH WIND       PRES   REMARKS
OMAHA EPPLEY   CLOUDY    40  38  93 NW8       29.80F FOG     WCI  34
BLAIR          CLOUDY    39  37  91 NE12      29.79R FOG     WCI  32
FREMONT        CLOUDY    38  35  89 N8        29.82S WCI  32
MILLARD        CLOUDY    43  40  89 CALM      29.80R FOG
OFFUTT AFB     PTSUNNY   41  39  92 NE9       29.78S
PLATTSMOUTH    MIX PCPN  39  39 100 NE9       29.78R WCI  33
WAHOO          CLOUDY    39  36  88 N13       29.80R FOG     WCI  31
$$




USA.gov is the U.S. government's official web portal to all federal, state and local government web resources and services.